SCP
0 0 0 0 0 0 0 -0 -0 -0 -0 -0 0 0 0 0 0 0 0 0 0 0 0 0 0 0 0 0 0 0 0 0 0 0 1 1 1 1 1 1 1 1 1 0 0 0 0 0 0
0 0 0 0 0 0 0 -0 -0 -0 -0 -0 0 0 0 0 0 0 0 0 0 0 0 0 0 0 0 0 0 0 0 0 0 0 0 0 1 1 1 1 1 0 0 0 0 0 0 0 0
0 0 0 0 0 0 0 -0 -0 0 0 -0 -0 -0 -0 0 0 0 0 0 0 0 0 0 0 0 0 0 0 0 0 0 0 0 0 0 0 0 0 0 0 0 0 0 0 0 0 0 0
0 0 0 0 0 0 0 0 0 0 0 0 0 -0 -0 0 0 0 0 0 0 0 0 0 0 0 0 0 0 0 0 0 0 0 0 0 0 0 0 0 0 0 0 0 0 0 0 0 0
0 0 0 0 0 0 0 0 0 0 0 0 0 0 0 0 0 0 0 0 0 0 0 0 0 0 0 0 0 0 0 0 0 0 0 0 0 0 0 0 0 0 0 0 0 0 0 0 0
0 0 0 0 0 0 0 0 0 0 0 0 0 0 0 0 0 0 0 0 0 0 0 0 0 1 1 0 0 0 0 0 0 0 0 0 0 0 0 0 0 0 0 0 0 0 0 0 0
0 0 0 0 0 0 0 0 0 0 0 0 0 0 0 0 0 0 0 0 0 0 0 0 0 0 0 0 0 0 0 0 0 0 0 0 0 0 0 0 0 0 0 0 0 0 0 0 0
0 0 0 0 0 0 0 0 0 0 0 0 0 0 0 0 0 0 0 0 0 0 0 0 0 0 0 0 0 0 0 0 0 0 0 0 0 0 0 0 0 0 0 0 0 0 0 0 0
0 0 0 0 0 0 0 0 0 0 0 0 0 0 0 0 0 0 0 0 0 0 0 0 0 0 0 0 0 0 0 0 0 0 0 0 0 0 0 0 0 0 0 0 0 0 0 0 0
0 0 0 0 0 0 0 0 0 0 0 0 0 0 0 0 0 0 0 0 0 0 0 0 0 0 0 0 0 0 0 0 0 0 0 0 0 0 0 0 0 -0 -0 -0 0 0 0 0 0
0 0 0 0 0 0 0 0 0 0 0 0 0 0 0 0 0 0 0 0 0 0 0 0 0 0 0 0 0 0 0 0 0 0 0 0 0 0 -0 -0 -0 -0 -0 -0 -0 -0 -0 0 0
0 0 0 0 0 0 0 0 0 0 0 0 0 1 1 1 0 0 0 0 0 0 0 0 0 0 0 0 0 0 0 0 0 0 0 0 0 0 -0 -0 -0 -0 -0 -0 -0 -0 -0 -0 0
0 0 0 0 0 0 0 0 0 0 0 0 0 1 1 1 1 0 0 0 0 0 0 0 0 0 0 0 0 0 0 0 0 0 0 0 0 0 0 -0 -0 -0 -0 0 0 0 0 0 0
0 0 0 0 0 0 0 0 0 0 0 0 0 1 1 1 1 1 1 1 0 0 0 0 0 1 1 1 0 0 0 0 0 0 0 0 0 0 0 0 0 0 0 0 0 0 0 0 0
0 0 0 0 0 0 0 0 0 0 0 0 0 1 1 1 1 1 1 1 1 1 1 1 1 1 1 1 1 0 0 0 0 0 0 0 0 0 0 0 0 0 0 0 0 0 0 0 0
0 0 0 0 0 0 0 0 0 0 0 0 0 1 1 1 1 1 1 1 1 1 1 1 1 1 1 1 1 0 0 0 0 0 0 0 0 0 0 0 0 0 0 0 0 0 0 0 0
0 0 0 0 0 0 0 0 0 0 0 0 0 1 1 1 1 1 1 1 1 1 1 1 1 1 1 1 1 1 0 0 0 0 0 0 0 0 0 0 0 0 0 0 0 0 0 0 0
0 0 0 0 0 0 0 0 0 0 0 0 0 0 1 1 1 1 1 1 1 2 2 2 2 2 2 1 1 1 1 0 0 0 0 0 0 0 0 0 0 0 0 0 0 0 0 0 0
0 0 0 0 0 0 0 0 0 0 0 0 0 0 0 0 0 0 0 1 1 2 2 3 3 3 2 2 1 1 1 0 0 0 0 0 0 0 0 0 0 0 0 0 0 0 0 0 0
0 0 0 0 0 0 0 0 0 0 0 0 0 0 0 0 0 0 0 0 1 1 2 3 3 3 3 2 1 1 1 0 0 0 0 0 0 0 0 0 0 0 0 0 0 0 0 0 0
0 0 0 0 0 0 0 0 0 0 0 0 0 0 0 0 0 0 0 0 1 1 2 2 3 3 2 2 1 1 0 0 0 0 0 0 0 0 0 0 0 0 0 0 0 0 0 0 0
0 0 0 0 0 0 0 0 0 0 0 0 0 0 0 0 0 0 0 0 1 1 2 2 2 2 2 1 1 0 0 0 0 0 0 0 0 0 0 0 0 0 0 0 0 0 0 0 0
0 0 0 0 0 0 0 0 0 0 0 0 0 0 0 0 0 0 1 1 1 1 1 2 2 1 1 1 1 0 0 0 0 0 0 0 0 0 0 0 0 0 0 0 0 0 0 0 0
0 0 0 0 0 0 0 0 0 0 0 0 0 0 0 0 1 1 1 1 1 1 1 1 1 1 1 0 0 0 0 0 0 0 0 0 0 0 0 0 0 0 0 0 0 0 0 0 0
0 0 0 0 0 0 0 0 0 0 0 0 0 0 1 1 1 1 1 1 1 1 1 1 1 0 0 0 0 0 0 0 0 0 0 0 0 0 0 0 0 0 0 0 0 0 0 0 0
0 0 0 0 0 0 0 0 0 0 0 1 1 1 1 1 1 1 1 1 1 0 0 0 0 0 0 0 0 0 0 0 0 0 0 0 0 0 0 0 0 0 0 0 0 0 0 0 0
0 0 0 0 0 0 0 0 0 0 0 1 1 1 1 1 1 1 0 0 0 0 0 0 0 0 0 0 0 0 0 0 0 0 0 0 0 0 0 0 0 0 0 0 0 0 0 0 0
0 0 0 0 0 0 0 0 0 0 0 1 1 1 0 0 0 0 0 0 0 0 0 0 0 0 0 0 0 0 0 0 0 0 0 0 0 0 0 0 0 0 0 0 0 0 0 0 0
0 0 0 0 0 0 0 0 0 0 0 1 1 0 0 0 0 0 0 0 0 0 0 0 0 0 0 0 0 0 0 0 0 0 0 0 0 0 0 0 0 0 0 0 0 0 0 0 0
0 0 0 0 0 0 0 0 0 0 0 0 0 0 0 0 0 0 0 0 0 0 0 0 0 0 0 0 0 0 0 0 0 0 0 0 0 0 0 0 0 0 0 0 0 0 0 0 0
Wind_Speed
1 4 3 3 6 5 3 5 3 3 2 1 2 3 3 3 3 2 1 7 12 11 9 12 14 15 15 15 16 16 16 15 15 14 14 13 13 12 12 11 11 10 10 11 11 11 10 10 10
2 4 3 5 5 2 5 4 3 3 2 0 1 2 2 1 2 5 4 7 12 12 8 10 15 15 16 16 15 16 16 16 15 15 14 14 13 12 12 12 11 10 10 10 10 9 9 9 9
3 3 5 5 4 5 5 4 2 3 1 1 1 1 1 2 5 6 6 12 12 10 8 11 17 16 16 16 16 16 16 16 16 15 14 13 13 12 11 11 11 10 9 9 8 8 7 7 7
4 5 6 4 5 7 6 4 2 3 3 0 2 1 1 1 6 6 12 14 13 10 8 11 17 17 16 16 16 16 16 16 15 15 14 13 12 11 11 11 10 9 8 8 7 6 6 5 5
5 5 3 1 6 6 6 6 4 4 3 2 3 2 1 3 7 12 14 14 13 10 8 10 15 16 16 17 16 16 15 15 14 14 13 12 11 10 10 10 9 8 7 6 6 5 4 4 3
6 5 4 5 6 5 6 6 4 6 5 3 5 4 1 3 10 12 12 11 11 11 9 9 16 18 17 17 16 15 14 14 13 12 12 11 10 9 9 9 8 7 6 5 4 3 2 2 2
6 5 5 5 3 4 5 4 5 6 6 6 8 6 2 4 8 11 9 9 8 9 9 8 9 13 16 16 16 15 14 13 13 12 11 10 10 9 9 8 7 6 5 4 3 2 1 1 1
5 6 4 4 4 5 3 1 3 5 5 4 7 8 7 7 9 9 8 7 7 8 8 7 7 7 8 10 16 16 15 14 13 13 13 12 11 10 9 7 6 6 5 4 2 1 0 1 2
4 5 4 6 6 5 2 1 3 2 3 4 5 6 6 13 14 10 8 6 8 9 8 7 7 7 7 7 11 13 14 14 13 11 13 10 4 4 5 6 7 7 5 4 2 1 1 2 3
4 4 8 6 5 3 3 2 3 2 2 3 3 3 11 17 16 15 13 13 14 14 12 8 8 8 7 8 6 5 6 6 6 4 6 4 3 3 4 4 7 7 5 3 2 1 2 2 2
6 7 6 6 7 4 4 4 3 4 6 8 9 11 17 17 16 16 16 16 16 14 13 12 10 9 9 6 5 4 3 4 5 5 5 4 3 2 2 1 1 1 1 1 2 2 2 2 2
5 6 5 4 3 2 4 4 3 7 11 7 10 17 21 21 20 20 19 17 13 12 14 13 12 10 9 6 6 5 4 4 4 5 5 4 3 2 2 1 1 1 1 1 1 1 2 2 2
5 5 6 7 6 5 5 6 6 9 10 4 10 16 21 22 20 17 14 13 13 15 15 14 13 12 10 8 6 7 6 5 5 5 5 5 4 4 3 2 1 1 1 1 1 1 2 2 3
5 5 5 5 6 4 5 6 3 10 4 7 13 17 20 21 19 15 15 15 15 16 16 14 15 13 11 9 7 6 6 5 5 5 6 6 4 4 3 3 2 2 2 2 2 2 2 3 3
2 3 5 5 4 4 2 5 5 7 3 9 13 15 17 17 16 18 19 17 17 16 15 14 14 12 11 10 8 5 5 4 4 3 4 5 5 4 3 3 2 2 2 3 3 4 4 4 4
1 1 2 5 2 2 3 5 7 4 4 8 11 12 14 15 16 17 15 14 13 12 13 13 13 13 11 8 6 3 3 3 2 2 3 5 5 4 4 3 2 3 3 3 3 3 3 4 3
3 1 2 5 2 2 2 5 7 5 5 8 10 12 13 13 14 15 14 14 13 13 12 12 11 12 11 8 5 4 3 3 3 2 2 3 4 4 4 3 3 4 4 3 3 3 3 2 2
4 3 2 3 3 4 2 6 9 5 7 9 9 11 12 15 20 16 13 12 11 11 11 11 10 9 9 7 5 3 3 2 2 1 2 4 4 5 5 4 4 5 5 4 3 4 4 2 1
3 2 3 5 4 2 5 7 10 6 5 8 9 10 13 18 15 9 10 9 9 10 11 11 11 9 9 7 6 5 3 2 2 2 3 3 5 6 5 5 5 4 4 4 4 3 4 3 2
4 3 4 6 2 1 4 8 9 5 6 8 10 12 13 13 9 9 9 8 9 10 9 9 9 9 9 7 6 4 4 3 3 3 4 4 5 6 6 7 5 5 5 5 4 3 3 2 3
4 5 5 6 6 4 3 8 8 6 3 4 6 8 8 11 11 8 7 7 7 7 8 8 8 8 8 8 7 6 5 3 3 3 3 4 5 6 7 7 6 5 5 5 4 3 4 3 2
5 7 6 3 1 4 2 5 10 6 7 6 6 5 6 6 7 6 5 5 4 4 6 7 8 8 8 8 8 8 5 3 3 3 3 5 6 6 6 7 7 6 5 5 4 3 3 4 2
8 4 5 3 3 2 2 3 10 6 6 6 5 4 4 3 2 2 3 5 7 7 8 9 10 10 8 8 8 7 6 5 5 5 6 5 5 6 6 7 6 6 5 5 5 5 4 3 3
4 4 5 5 4 2 5 6 8 4 5 7 6 6 5 4 6 8 9 11 11 10 10 10 11 10 9 9 7 7 8 9 9 8 6 5 4 4 6 6 6 6 5 5 5 5 5 3 3
5 5 4 4 2 7 3 4 7 4 5 4 5 6 7 8 10 11 12 12 12 12 11 11 12 10 9 9 8 8 7 8 9 8 7 6 4 3 4 5 5 5 5 5 4 4 3 3 2
6 10 8 6 5 5 1 5 3 3 6 7 8 9 11 12 12 12 12 11 11 11 11 11 11 10 8 8 9 8 8 6 5 7 6 5 4 4 4 5 5 5 5 5 4 3 3 2 2
7 7 8 7 2 1 4 3 1 4 8 9 10 11 12 12 13 13 12 12 12 12 11 11 11 10 9 9 10 10 8 7 8 7 7 5 5 5 6 5 5 5 5 5 4 4 3 3 3
6 8 6 7 8 5 4 2 2 3 4 6 9 10 10 11 12 13 12 12 12 11 11 11 12 11 11 10 9 9 8 8 8 8 8 7 6 6 6 6 6 6 6 5 5 4 4 4 3
4 4 5 4 5 8 5 5 1 1 2 5 8 9 10 11 11 11 11 11 11 11 11 11 11 11 11 10 10 10 9 9 9 9 8 7 7 6 6 6 6 6 6 6 5 5 4 4 3
4 4 6 5 4 4 5 3 3 1 5 8 9 9 10 10 10 11 11 11 11 11 11 11 10 11 10 10 10 10 9 10 10 9 8 7 7 6 6 6 6 6 6 5 5 4 4 4 4
Wind_Direction
198 126 113 74 47 39 300 273 264 295 276 240 167 143 159 168 186 209 111 127 131 138 149 152 152 146 140 136 132 129 126 123 120 117 116 116 116 116 116 117 116 115 114 112 109 106 104 102 102
165 132 79 62 79 12 283 263 272 265 251 85 82 99 106 179 114 123 131 136 135 139 144 152 151 146 142 138 135 134 132 131 128 127 127 126 126 125 126 126 125 123 121 120 116 112 109 107 107
152 95 93 81 126 189 242 250 242 289 263 87 63 75 156 184 152 156 153 140 134 139 143 157 153 149 145 142 140 139 138 137 137 136 136 136 135 134 135 136 135 133 130 128 125 120 116 113 111
99 60 59 99 209 223 224 246 275 304 316 287 125 86 58 110 155 152 142 142 139 143 149 158 155 152 149 147 145 144 144 144 144 144 144 144 144 144 145 146 145 144 141 138 133 127 121 114 109
63 84 89 206 233 244 242 246 235 236 229 207 143 136 360 32 113 135 146 148 146 147 150 157 156 155 154 152 151 150 150 150 150 151 152 152 152 153 154 155 156 155 153 151 145 137 126 114 102
63 79 128 224 244 255 253 233 209 225 228 190 147 140 263 127 138 151 152 148 148 150 151 157 160 159 159 159 157 156 155 155 156 156 157 158 159 161 162 164 165 165 165 164 158 144 128 105 86
113 121 180 204 231 256 245 213 196 208 214 196 152 140 224 170 166 154 146 139 143 152 155 160 164 164 165 164 162 161 161 161 161 161 162 164 166 170 173 174 176 177 179 181 176 159 124 60 29
129 121 172 206 209 242 237 216 228 197 214 171 142 158 202 186 156 141 129 131 145 157 165 165 165 163 163 166 169 169 169 168 168 170 171 174 177 180 184 183 189 193 199 205 206 205 339 4 351
97 94 197 211 200 233 232 316 282 219 168 162 168 181 187 144 144 139 134 142 164 175 180 176 171 167 163 166 177 175 176 177 176 178 181 179 177 183 189 193 202 208 214 223 233 271 329 349 354
114 165 218 219 212 237 280 260 247 225 188 180 147 138 139 148 159 165 171 175 182 187 188 185 179 174 169 176 173 170 173 175 175 173 178 168 164 182 191 209 215 220 224 237 252 287 342 9 11
168 192 221 238 237 252 281 274 222 181 220 208 186 163 153 162 173 182 186 187 190 188 187 189 186 180 178 178 169 170 167 168 175 178 175 162 159 171 183 168 244 262 260 14 19 19 22 21 13
182 229 225 246 236 250 251 261 244 210 225 211 178 162 163 175 185 191 191 192 189 186 193 190 188 185 186 182 176 174 174 176 181 184 176 165 168 179 180 182 181 150 90 85 57 31 10 13 11
212 250 244 252 273 251 247 244 243 247 242 179 153 162 175 185 192 196 196 193 189 192 195 193 189 190 188 185 182 181 183 184 184 182 182 179 181 187 186 190 182 170 142 136 119 78 50 38 32
223 233 267 278 271 253 240 263 226 260 222 164 164 176 186 192 192 192 197 197 195 198 197 193 193 193 188 189 186 182 184 184 182 187 188 186 186 185 183 184 180 172 155 135 112 95 83 63 57
259 266 300 275 252 250 210 295 242 259 160 173 183 187 191 198 195 201 203 201 199 199 197 193 194 192 192 192 187 182 180 178 186 191 190 191 190 186 176 168 162 146 120 109 95 87 82 75 65
4 97 291 290 275 274 166 264 280 283 186 195 195 194 199 205 206 208 206 204 201 196 196 195 194 190 190 187 176 170 161 160 174 180 182 190 189 177 161 152 140 113 104 100 96 89 81 69 66
20 167 227 294 342 38 106 258 279 288 211 215 206 203 206 212 217 215 208 203 200 197 193 192 193 184 180 170 157 148 138 145 151 162 172 179 169 159 143 135 121 113 100 90 98 73 82 79 75
224 221 235 268 308 11 337 273 286 273 222 230 222 214 213 217 221 215 208 201 197 194 192 191 188 177 163 153 137 123 100 104 107 135 153 150 142 138 130 119 113 109 103 94 90 87 66 65 56
196 215 262 267 278 316 292 287 287 276 244 245 237 224 221 226 228 213 208 199 191 190 190 188 184 172 159 158 153 147 144 129 97 102 110 132 133 131 128 120 109 105 105 110 115 104 81 50 14
204 245 276 290 325 277 296 291 284 269 237 234 236 234 230 237 234 217 211 200 197 192 186 181 178 166 162 158 145 130 121 110 89 72 80 97 114 121 123 118 120 118 113 105 104 118 114 61 26
201 205 235 264 333 347 305 308 305 300 299 287 261 248 243 234 230 224 213 209 197 183 174 170 162 152 144 133 115 103 89 82 96 90 83 80 91 106 119 124 124 122 117 116 107 113 126 121 56
231 222 213 238 348 301 20 304 295 298 316 305 290 280 265 249 233 213 192 188 172 152 138 132 129 125 123 123 126 129 137 141 133 119 105 95 94 102 108 111 112 112 109 112 108 97 102 116 112
213 211 195 209 190 270 272 200 281 317 313 311 325 323 308 280 221 165 130 110 96 98 102 105 106 104 107 112 126 123 119 113 110 106 102 92 86 91 99 106 107 106 104 105 102 98 91 93 111
180 75 50 51 87 247 234 170 271 295 303 317 343 2 5 27 71 82 85 89 88 89 92 98 101 95 92 94 101 108 118 127 130 128 122 108 96 91 95 102 101 102 102 103 104 102 100 101 109
129 104 25 357 29 242 230 168 244 312 348 346 3 30 48 66 76 81 84 86 86 86 88 92 95 92 91 96 99 106 122 134 138 135 130 125 115 103 104 107 104 103 105 106 103 98 97 108 116
176 149 163 195 211 257 230 211 242 35 43 53 59 64 67 70 72 75 77 79 81 81 83 87 91 92 93 99 101 105 112 114 116 117 120 118 112 106 105 102 98 99 100 97 91 86 82 83 79
163 190 180 150 171 237 271 267 329 46 55 61 69 71 67 68 70 70 69 70 72 72 71 76 80 75 71 76 83 86 91 99 103 102 99 98 99 102 93 90 86 81 79 80 80 69 57 55 44
161 149 110 135 156 208 259 255 251 352 54 71 76 74 71 69 68 66 64 65 65 67 68 67 74 76 74 75 79 85 83 88 93 94 92 92 88 89 88 82 78 73 71 73 74 70 59 59 39
113 120 127 137 163 163 206 252 303 237 133 102 89 80 73 69 68 67 65 65 66 65 66 68 70 72 72 75 79 82 81 83 84 84 84 84 82 84 87 89 86 80 75 75 77 72 58 50 27
123 146 146 152 200 176 167 222 352 96 111 110 100 88 79 73 70 69 68 68 67 67 67 68 69 71 73 76 78 77 76 76 77 77 76 79 80 79 86 90 90 88 84 77 74 62 48 31 8